| time (UTC) | temp F | wind direction | speed MPH | gust MPH | rain 1hr in | rain 24hr in | rain mn in | humidity % | barometer mb |
| 20260510192150 | 86 | 346 | 1.0 | 6.0 | 0.00 | 0.01 | 0.01 | 76 | 1018.5 |
| 20260510191647 | 86 | 297 | 0.0 | 3.0 | 0.00 | 0.01 | 0.01 | 74 | 1018.4 |
| 20260510191144 | 84 | 312 | 2.0 | 6.0 | 0.00 | 0.01 | 0.01 | 74 | 1018.7 |
| 20260510190641 | 85 | 308 | 2.0 | 3.0 | 0.00 | 0.01 | 0.01 | 74 | 1018.8 |
| 20260510190138 | 85 | 342 | 0.0 | 3.0 | 0.00 | 0.01 | 0.01 | 73 | 1018.9 |
| 20260510185635 | 84 | 283 | 0.0 | 4.0 | 0.00 | 0.01 | 0.01 | 76 | 1018.8 |
| 20260510185133 | 84 | 303 | 3.0 | 6.0 | 0.00 | 0.01 | 0.01 | 74 | 1018.9 |
| 20260510184629 | 85 | 282 | 3.0 | 5.0 | 0.00 | 0.01 | 0.01 | 74 | 1019.0 |
| 20260510184125 | 85 | 330 | 2.0 | 2.0 | 0.00 | 0.01 | 0.01 | 79 | 1019.1 |
| 20260510183620 | 84 | 303 | 2.0 | 4.0 | 0.00 | 0.01 | 0.01 | 77 | 1019.0 |
| 20260510183115 | 83 | 307 | 0.0 | 4.0 | 0.00 | 0.01 | 0.01 | 79 | 1019.1 |
| 20260510182613 | 84 | 333 | 3.0 | 5.0 | 0.00 | 0.01 | 0.01 | 78 | 1019.1 |
| 20260510182108 | 84 | 225 | 0.0 | 3.0 | 0.00 | 0.01 | 0.01 | 75 | 1019.2 |
| 20260510181606 | 84 | 279 | 1.0 | 3.0 | 0.00 | 0.01 | 0.01 | 76 | 1019.0 |
| 20260510181102 | 84 | 195 | 0.0 | 1.0 | 0.00 | 0.01 | 0.01 | 77 | 1019.1 |
| 20260510180558 | 84 | 331 | 0.0 | 2.0 | 0.02 | 0.01 | 0.01 | 86 | 1019.2 |
| 20260510180056 | 84 | 301 | 2.0 | 4.0 | 0.02 | 0.01 | 0.01 | 78 | 1019.3 |
| 20260510175551 | 84 | 270 | 1.0 | 4.0 | 0.00 | 0.01 | 0.01 | 76 | 1019.3 |
| 20260510175047 | 83 | 294 | 2.0 | 5.0 | 0.00 | 0.01 | 0.01 | 78 | 1019.3 |
| 20260510174545 | 83 | 326 | 0.0 | 2.0 | 0.00 | 0.01 | 0.01 | 76 | 1019.2 |
| 20260510174042 | 83 | 315 | 2.0 | 5.0 | 0.00 | 0.01 | 0.01 | 78 | 1019.2 |
| 20260510173537 | 85 | 332 | 5.0 | 7.0 | 0.00 | 0.01 | 0.01 | 76 | 1019.2 |
| 20260510173034 | 84 | 314 | 4.0 | 5.0 | 0.00 | 0.01 | 0.01 | 76 | 1019.4 |
| 20260510172530 | 84 | 283 | 0.0 | 2.0 | 0.00 | 0.01 | 0.01 | 85 | 1019.4 |
| 20260510172027 | 84 | 336 | 2.0 | 3.0 | 0.00 | 0.01 | 0.01 | 76 | 1019.4 |
| 20260510171524 | 82 | 236 | 2.0 | 3.0 | 0.00 | 0.01 | 0.01 | 76 | 1019.5 |
| 20260510171021 | 82 | 348 | 1.0 | 5.0 | 0.00 | 0.01 | 0.01 | 82 | 1019.6 |
| 20260510170517 | 83 | 331 | 1.0 | 2.0 | 0.00 | 0.01 | 0.01 | 81 | 1019.8 |
| 20260510170014 | 83 | 290 | 2.0 | 4.0 | 0.00 | 0.01 | 0.01 | 80 | 1019.7 |
| 20260510165509 | 82 | 331 | 0.0 | 2.0 | 0.00 | 0.01 | 0.01 | 85 | 1019.8 |
| 20260510165006 | 82 | 270 | 0.0 | 0.0 | 0.00 | 0.01 | 0.01 | 84 | 1019.7 |
| 20260510164503 | 82 | 0 | 0.0 | 0.0 | 0.00 | 0.01 | 0.01 | 87 | 1019.7 |
| 20260510163959 | 81 | 110 | 0.0 | 3.0 | 0.00 | 0.01 | 0.01 | 80 | 1019.8 |
| 20260510163454 | 82 | 319 | 2.0 | 5.0 | 0.00 | 0.01 | 0.01 | 77 | 1019.9 |
| 20260510162950 | 82 | 165 | 0.0 | 3.0 | 0.00 | 0.01 | 0.01 | 84 | 1019.8 |
| 20260510162447 | 83 | 254 | 2.0 | 3.0 | 0.00 | 0.01 | 0.01 | 82 | 1019.8 |
| 20260510161942 | 82 | 111 | 0.0 | 2.0 | 0.00 | 0.01 | 0.01 | 82 | 1019.9 |
| 20260510161432 | 82 | 294 | 0.0 | 2.0 | 0.00 | 0.01 | 0.01 | 86 | 1019.8 |
| 20260510160930 | 81 | 12 | 0.0 | 2.0 | 0.00 | 0.01 | 0.01 | 83 | 1019.6 |
| 20260510160427 | 80 | 225 | 0.0 | 3.0 | 0.00 | 0.01 | 0.01 | 83 | 1019.9 |
| 20260510155925 | 79 | 154 | 2.0 | 3.0 | 0.00 | 0.01 | 0.01 | 82 | 1019.8 |
| 20260510155417 | 80 | 139 | 2.0 | 4.0 | 0.00 | 0.01 | 0.01 | 82 | 1020.0 |
| 20260510154914 | 80 | 191 | 0.0 | 8.0 | 0.00 | 0.01 | 0.01 | 85 | 1019.9 |
| 20260510154409 | 79 | 345 | 2.0 | 4.0 | 0.00 | 0.01 | 0.01 | 87 | 1020.0 |
| 20260510153903 | 79 | 270 | 0.0 | 3.0 | 0.00 | 0.01 | 0.01 | 83 | 1020.2 |
| 20260510153400 | 79 | 290 | 0.0 | 3.0 | 0.00 | 0.01 | 0.01 | 83 | 1020.0 |
| 20260510152856 | 80 | 145 | 3.0 | 3.0 | 0.00 | 0.01 | 0.01 | 83 | 1020.0 |
| 20260510152354 | 80 | 312 | 0.0 | 4.0 | 0.00 | 0.01 | 0.01 | 83 | 1020.0 |
| 20260510151850 | 80 | 81 | 1.0 | 1.0 | 0.00 | 0.01 | 0.01 | 84 | 1020.1 |
| 20260510151348 | 79 | 263 | 0.0 | 3.0 | 0.00 | 0.01 | 0.01 | 87 | 1020.1 |
| 20260510150844 | 79 | 140 | 0.0 | 3.0 | 0.00 | 0.01 | 0.01 | 85 | 1020.0 |
| 20260510150339 | 79 | 246 | 1.0 | 3.0 | 0.00 | 0.01 | 0.01 | 89 | 1020.1 |
| 20260510145836 | 78 | 215 | 0.0 | 2.0 | 0.00 | 0.01 | 0.01 | 87 | 1020.0 |
| 20260510145332 | 78 | 276 | 2.0 | 2.0 | 0.00 | 0.01 | 0.01 | 88 | 1020.4 |
| 20260510144829 | 78 | 261 | 0.0 | 0.0 | 0.00 | 0.01 | 0.01 | 94 | 1020.2 |
| 20260510144326 | 77 | 292 | 2.0 | 3.0 | 0.00 | 0.01 | 0.01 | 93 | 1020.4 |
| 20260510143826 | 77 | 285 | 0.0 | 1.0 | 0.00 | 0.01 | 0.01 | 98 | 1020.6 |
| 20260510143322 | 75 | 283 | 0.0 | 2.0 | 0.00 | 0.01 | 0.01 | 99 | 1020.3 |
| 20260510142819 | 73 | 337 | 0.0 | 3.0 | 0.02 | 0.01 | 0.01 | 99 | 1020.4 |
| 20260510142315 | 71 | 289 | 0.0 | 3.0 | 0.02 | 0.01 | 0.01 | 99 | 1020.5 |
| 20260510141812 | 71 | 300 | 0.0 | 2.0 | 0.00 | 0.00 | 0.00 | 99 | 1020.2 |
| 20260510141309 | 70 | 346 | 1.0 | 3.0 | 0.00 | 0.00 | 0.00 | 99 | 1020.3 |
| 20260510140801 | 70 | 330 | 2.0 | 2.0 | 0.00 | 0.00 | 0.00 | 99 | 1020.2 |
| 20260510140256 | 70 | 332 | 3.0 | 3.0 | 0.00 | 0.00 | 0.00 | 99 | 1020.1 |
| 20260510135750 | 69 | 324 | 0.0 | 2.0 | 0.00 | 0.00 | 0.00 | 99 | 1020.3 |
| 20260510135246 | 69 | 294 | 0.0 | 1.0 | 0.00 | 0.00 | 0.00 | 99 | 1019.9 |
| 20260510134744 | 69 | 194 | 0.0 | 2.0 | 0.00 | 0.00 | 0.00 | 99 | 1020.0 |
| 20260510134241 | 70 | 294 | 0.0 | 2.0 | 0.00 | 0.00 | 0.00 | 99 | 1019.8 |
| 20260510133737 | 69 | 270 | 0.0 | 2.0 | 0.00 | 0.00 | 0.00 | 99 | 1020.0 |
| 20260510133232 | 69 | 327 | 0.0 | 2.0 | 0.00 | 0.00 | 0.00 | 99 | 1019.9 |
| 20260510132728 | 69 | 279 | 0.0 | 0.0 | 0.00 | 0.00 | 0.00 | 99 | 1019.8 |
| 20260510132226 | 69 | 349 | 0.0 | 2.0 | 0.00 | 0.00 | 0.00 | 99 | 1020.0 |
| 20260510131723 | 68 | 262 | 0.0 | 0.0 | 0.00 | 0.00 | 0.00 | 99 | 1019.9 |
| 20260510131221 | 68 | 352 | 0.0 | 1.0 | 0.00 | 0.00 | 0.00 | 99 | 1019.8 |
| 20260510130717 | 68 | 353 | 0.0 | 1.0 | 0.00 | 0.00 | 0.00 | 99 | 1019.9 |
| 20260510130215 | 68 | 340 | 0.0 | 0.0 | 0.00 | 0.00 | 0.00 | 99 | 1019.6 |
| 20260510125710 | 67 | 291 | 0.0 | 2.0 | 0.00 | 0.00 | 0.00 | 99 | 1020.1 |
| 20260510125207 | 67 | 237 | 0.0 | 0.0 | 0.00 | 0.00 | 0.00 | 99 | 1019.9 |
| 20260510124703 | 66 | 237 | 0.0 | 0.0 | 0.00 | 0.00 | 0.00 | 99 | 1019.7 |
| 20260510124200 | 66 | 270 | 0.0 | 1.0 | 0.00 | 0.00 | 0.00 | 99 | 1019.6 |
| 20260510123650 | 66 | 279 | 0.0 | 0.0 | 0.00 | 0.00 | 0.00 | 99 | 1019.6 |
| 20260510123146 | 66 | 283 | 0.0 | 1.0 | 0.00 | 0.00 | 0.00 | 99 | 1019.4 |
| 20260510122643 | 66 | 294 | 0.0 | 2.0 | 0.00 | 0.00 | 0.00 | 99 | 1019.4 |
| 20260510122139 | 65 | 345 | 0.0 | 0.0 | 0.00 | 0.00 | 0.00 | 99 | 1019.1 |
| 20260510121635 | 65 | 254 | 0.0 | 0.0 | 0.00 | 0.00 | 0.00 | 99 | 1019.4 |
| 20260510121133 | 65 | 254 | 0.0 | 2.0 | 0.00 | 0.00 | 0.00 | 99 | 1019.1 |
| 20260510120631 | 65 | 270 | 0.0 | 0.0 | 0.00 | 0.00 | 0.00 | 99 | 1019.2 |
| 20260510120126 | 64 | 353 | 0.0 | 1.0 | 0.00 | 0.00 | 0.00 | 99 | 1019.2 |
| 20260510115623 | 65 | 340 | 0.0 | 0.0 | 0.00 | 0.00 | 0.00 | 99 | 1018.8 |
| 20260510115121 | 65 | 340 | 0.0 | 0.0 | 0.00 | 0.00 | 0.00 | 99 | 1018.7 |
| 20260510114616 | 64 | 340 | 0.0 | 0.0 | 0.00 | 0.00 | 0.00 | 99 | 1018.8 |
| 20260510114112 | 64 | 340 | 0.0 | 0.0 | 0.00 | 0.00 | 0.00 | 99 | 1018.7 |
| 20260510113608 | 64 | 340 | 0.0 | 0.0 | 0.00 | 0.00 | 0.00 | 99 | 1018.5 |
| 20260510113105 | 64 | 340 | 0.0 | 0.0 | 0.00 | 0.00 | 0.00 | 99 | 1018.7 |
| 20260510112602 | 64 | 340 | 0.0 | 0.0 | 0.00 | 0.00 | 0.00 | 99 | 1018.5 |
| 20260510112058 | 64 | 340 | 0.0 | 0.0 | 0.00 | 0.00 | 0.00 | 99 | 1018.7 |
| 20260510111554 | 64 | 340 | 0.0 | 0.0 | 0.00 | 0.00 | 0.00 | 99 | 1018.7 |
| 20260510111051 | 64 | 340 | 0.0 | 0.0 | 0.00 | 0.00 | 0.00 | 99 | 1018.4 |
| 20260510110547 | 64 | 345 | 0.0 | 1.0 | 0.00 | 0.00 | 0.00 | 99 | 1018.4 |
| 20260510110043 | 64 | 254 | 0.0 | 0.0 | 0.00 | 0.00 | 0.00 | 99 | 1018.4 |
| 20260510105539 | 64 | 254 | 0.0 | 0.0 | 0.00 | 0.00 | 0.00 | 99 | 1018.2 |
| 20260510105034 | 64 | 285 | 0.0 | 0.0 | 0.00 | 0.00 | 0.00 | 99 | 1018.1 |
| 20260510104531 | 64 | 285 | 0.0 | 0.0 | 0.00 | 0.00 | 0.00 | 99 | 1017.8 |
| 20260510104027 | 65 | 285 | 0.0 | 0.0 | 0.00 | 0.00 | 0.00 | 99 | 1017.9 |
| 20260510103525 | 64 | 285 | 0.0 | 0.0 | 0.00 | 0.00 | 0.00 | 99 | 1017.9 |
| 20260510103021 | 64 | 285 | 0.0 | 0.0 | 0.00 | 0.00 | 0.00 | 99 | 1017.9 |
| 20260510102516 | 65 | 285 | 0.0 | 1.0 | 0.00 | 0.00 | 0.00 | 99 | 1017.5 |
| 20260510102013 | 65 | 270 | 0.0 | 0.0 | 0.00 | 0.00 | 0.00 | 99 | 1017.6 |
| 20260510101510 | 64 | 324 | 0.0 | 0.0 | 0.00 | 0.00 | 0.00 | 99 | 1017.7 |
| 20260510101009 | 64 | 324 | 0.0 | 0.0 | 0.00 | 0.00 | 0.00 | 99 | 1017.6 |
| 20260510100505 | 64 | 324 | 0.0 | 0.0 | 0.00 | 0.00 | 0.00 | 99 | 1017.4 |
| 20260510100002 | 64 | 324 | 0.0 | 0.0 | 0.00 | 0.00 | 0.00 | 99 | 1017.5 |
| 20260510095457 | 64 | 324 | 0.0 | 2.0 | 0.00 | 0.00 | 0.00 | 99 | 1017.6 |
| 20260510094956 | 64 | 352 | 0.0 | 0.0 | 0.00 | 0.00 | 0.00 | 99 | 1017.6 |
| 20260510094451 | 64 | 352 | 0.0 | 0.0 | 0.00 | 0.00 | 0.00 | 99 | 1017.1 |
| 20260510093947 | 64 | 352 | 0.0 | 0.0 | 0.00 | 0.00 | 0.00 | 99 | 1017.5 |
| 20260510093443 | 64 | 352 | 0.0 | 0.0 | 0.00 | 0.00 | 0.00 | 99 | 1017.3 |
| 20260510092939 | 64 | 352 | 0.0 | 0.0 | 0.00 | 0.00 | 0.00 | 99 | 1017.2 |
| 20260510092436 | 64 | 352 | 0.0 | 1.0 | 0.00 | 0.00 | 0.00 | 99 | 1017.4 |
| 20260510091931 | 64 | 336 | 0.0 | 0.0 | 0.00 | 0.00 | 0.00 | 99 | 1017.3 |
| 20260510091428 | 64 | 336 | 0.0 | 0.0 | 0.00 | 0.00 | 0.00 | 99 | 1017.0 |
| 20260510090924 | 65 | 336 | 0.0 | 0.0 | 0.00 | 0.00 | 0.00 | 99 | 1017.1 |
| 20260510090421 | 65 | 325 | 1.0 | 2.0 | 0.00 | 0.00 | 0.00 | 99 | 1017.2 |
| 20260510085917 | 64 | 285 | 0.0 | 0.0 | 0.00 | 0.00 | 0.00 | 99 | 1016.9 |
| 20260510085412 | 64 | 285 | 0.0 | 0.0 | 0.00 | 0.00 | 0.00 | 99 | 1016.7 |
| 20260510084907 | 64 | 285 | 0.0 | 0.0 | 0.00 | 0.00 | 0.00 | 99 | 1016.6 |
| 20260510084405 | 65 | 285 | 0.0 | 1.0 | 0.00 | 0.00 | 0.00 | 99 | 1016.5 |
| 20260510083902 | 65 | 0 | 1.0 | 1.0 | 0.00 | 0.00 | 0.00 | 99 | 1016.6 |
| 20260510083358 | 64 | 294 | 0.0 | 1.0 | 0.00 | 0.00 | 0.00 | 99 | 1016.4 |
| 20260510082854 | 65 | 300 | 0.0 | 0.0 | 0.00 | 0.00 | 0.00 | 99 | 1016.6 |
| 20260510082352 | 65 | 300 | 0.0 | 0.0 | 0.00 | 0.00 | 0.00 | 99 | 1016.5 |
| 20260510081850 | 65 | 300 | 0.0 | 0.0 | 0.00 | 0.00 | 0.00 | 99 | 1016.7 |
| 20260510081346 | 65 | 337 | 0.0 | 0.0 | 0.00 | 0.00 | 0.00 | 99 | 1016.3 |
| 20260510080843 | 65 | 0 | 0.0 | 0.0 | 0.00 | 0.00 | 0.00 | 99 | 1016.3 |
| 20260510080337 | 65 | 0 | 0.0 | 0.0 | 0.00 | 0.00 | 0.00 | 99 | 1016.3 |
| 20260510075834 | 65 | 0 | 0.0 | 0.0 | 0.00 | 0.00 | 0.00 | 99 | 1016.4 |
| 20260510075332 | 65 | 0 | 0.0 | 0.0 | 0.00 | 0.00 | 0.00 | 99 | 1016.3 |
| 20260510074828 | 66 | 0 | 0.0 | 0.0 | 0.00 | 0.00 | 0.00 | 99 | 1016.0 |
| 20260510074326 | 66 | 0 | 0.0 | 0.0 | 0.00 | 0.00 | 0.00 | 99 | 1016.2 |
| 20260510073822 | 66 | 0 | 0.0 | 0.0 | 0.00 | 0.00 | 0.00 | 99 | 1016.2 |
| 20260510073317 | 66 | 332 | 0.0 | 0.0 | 0.00 | 0.00 | 0.00 | 99 | 1016.3 |
| 20260510072814 | 66 | 332 | 0.0 | 0.0 | 0.00 | 0.00 | 0.00 | 99 | 1016.1 |
| 20260510072310 | 66 | 346 | 0.0 | 0.0 | 0.00 | 0.00 | 0.00 | 99 | 1016.1 |
| 20260510071807 | 66 | 346 | 0.0 | 0.0 | 0.00 | 0.00 | 0.00 | 99 | 1016.1 |
| 20260510071303 | 66 | 346 | 0.0 | 0.0 | 0.00 | 0.00 | 0.00 | 99 | 1016.0 |
| 20260510070802 | 66 | 346 | 0.0 | 0.0 | 0.00 | 0.00 | 0.00 | 99 | 1016.0 |
| 20260510070258 | 66 | 346 | 0.0 | 1.0 | 0.00 | 0.00 | 0.00 | 99 | 1016.2 |
| 20260510065753 | 67 | 106 | 1.0 | 2.0 | 0.00 | 0.00 | 0.00 | 99 | 1016.1 |
| 20260510065250 | 67 | 261 | 0.0 | 0.0 | 0.00 | 0.00 | 0.00 | 99 | 1016.5 |
| 20260510064746 | 67 | 261 | 0.0 | 0.0 | 0.00 | 0.00 | 0.00 | 99 | 1016.3 |
| 20260510064245 | 66 | 261 | 0.0 | 0.0 | 0.00 | 0.00 | 0.00 | 99 | 1016.5 |
| 20260510063740 | 66 | 261 | 0.0 | 0.0 | 0.00 | 0.00 | 0.00 | 99 | 1016.2 |
| 20260510063237 | 66 | 0 | 0.0 | 0.0 | 0.00 | 0.00 | 0.00 | 99 | 1016.3 |
| 20260510062733 | 67 | 0 | 0.0 | 0.0 | 0.00 | 0.00 | 0.00 | 99 | 1016.6 |
| 20260510062229 | 66 | 0 | 0.0 | 0.0 | 0.00 | 0.00 | 0.00 | 99 | 1016.7 |
| 20260510061725 | 66 | 345 | 0.0 | 0.0 | 0.00 | 0.00 | 0.00 | 99 | 1016.7 |
| 20260510061222 | 66 | 345 | 0.0 | 0.0 | 0.00 | 0.00 | 0.00 | 99 | 1016.6 |
| 20260510060718 | 67 | 345 | 0.0 | 0.0 | 0.00 | 0.00 | 0.00 | 99 | 1016.7 |
| 20260510060215 | 67 | 353 | 0.0 | 0.0 | 0.00 | 0.00 | 0.00 | 99 | 1016.6 |
| 20260510055712 | 67 | 353 | 0.0 | 0.0 | 0.00 | 0.00 | 0.00 | 99 | 1016.6 |
| 20260510055210 | 67 | 353 | 0.0 | 2.0 | 0.00 | 0.00 | 0.00 | 99 | 1016.8 |
| 20260510054705 | 67 | 180 | 0.0 | 0.0 | 0.00 | 0.00 | 0.00 | 99 | 1016.9 |
| 20260510054201 | 67 | 180 | 0.0 | 0.0 | 0.00 | 0.00 | 0.00 | 99 | 1016.6 |
| 20260510053700 | 67 | 180 | 0.0 | 0.0 | 0.02 | 0.00 | 0.00 | 99 | 1016.6 |
| 20260510053157 | 67 | 180 | 0.0 | 0.0 | 0.02 | 0.00 | 0.00 | 99 | 1016.4 |
| 20260510052653 | 67 | 180 | 0.0 | 0.0 | 0.00 | 0.00 | 0.00 | 99 | 1016.4 |
| 20260510052149 | 67 | 0 | 0.0 | 0.0 | 0.00 | 0.00 | 0.00 | 99 | 1016.5 |
| 20260510051645 | 67 | 0 | 0.0 | 0.0 | 0.00 | 0.00 | 0.00 | 99 | 1016.8 |
| 20260510051142 | 67 | 0 | 0.0 | 0.0 | 0.00 | 0.00 | 0.00 | 99 | 1016.8 |
| 20260510050639 | 67 | 0 | 0.0 | 0.0 | 0.00 | 0.00 | 0.00 | 99 | 1016.6 |
| 20260510050136 | 67 | 0 | 0.0 | 0.0 | 0.00 | 0.00 | 0.00 | 99 | 1016.6 |
| 20260510045633 | 67 | 0 | 0.0 | 0.0 | 0.00 | 0.01 | 0.01 | 99 | 1017.0 |
| 20260510045129 | 67 | 0 | 0.0 | 0.0 | 0.00 | 0.01 | 0.01 | 99 | 1017.0 |
| 20260510044625 | 67 | 0 | 0.0 | 0.0 | 0.00 | 0.01 | 0.01 | 99 | 1017.0 |
| 20260510044123 | 67 | 353 | 0.0 | 0.0 | 0.00 | 0.01 | 0.01 | 99 | 1017.5 |
| 20260510043618 | 67 | 353 | 0.0 | 0.0 | 0.00 | 0.01 | 0.01 | 99 | 1017.1 |
| 20260510043115 | 67 | 353 | 0.0 | 1.0 | 0.00 | 0.01 | 0.01 | 99 | 1017.0 |
| 20260510042613 | 67 | 180 | 0.0 | 0.0 | 0.00 | 0.01 | 0.01 | 99 | 1017.1 |
| 20260510042108 | 68 | 180 | 0.0 | 0.0 | 0.00 | 0.01 | 0.01 | 99 | 1017.3 |
| 20260510041600 | 67 | 173 | 0.0 | 1.0 | 0.00 | 0.01 | 0.01 | 99 | 1017.4 |
| 20260510041057 | 67 | 352 | 0.0 | 0.0 | 0.00 | 0.01 | 0.01 | 99 | 1017.4 |
| 20260510040554 | 67 | 352 | 0.0 | 0.0 | 0.00 | 0.01 | 0.01 | 99 | 1017.6 |
| 20260510040050 | 67 | 345 | 0.0 | 0.0 | 0.00 | 0.01 | 0.01 | 99 | 1017.6 |
| 20260510035547 | 67 | 345 | 0.0 | 0.0 | 0.00 | 0.01 | 0.01 | 99 | 1017.6 |
| 20260510035046 | 67 | 345 | 0.0 | 0.0 | 0.00 | 0.01 | 0.01 | 99 | 1017.4 |
| 20260510034545 | 67 | 345 | 0.0 | 0.0 | 0.00 | 0.01 | 0.01 | 99 | 1017.6 |
| 20260510034041 | 68 | 0 | 0.0 | 0.0 | 0.00 | 0.01 | 0.01 | 99 | 1017.7 |
| 20260510033537 | 67 | 0 | 0.0 | 0.0 | 0.00 | 0.01 | 0.01 | 99 | 1017.6 |
| 20260510033036 | 68 | 0 | 0.0 | 0.0 | 0.00 | 0.01 | 0.01 | 99 | 1017.4 |
| 20260510032532 | 67 | 14 | 0.0 | 2.0 | 0.00 | 0.01 | 0.01 | 99 | 1017.2 |
| 20260510032027 | 67 | 15 | 0.0 | 0.0 | 0.00 | 0.01 | 0.01 | 99 | 1017.0 |
| 20260510031522 | 68 | 15 | 0.0 | 0.0 | 0.00 | 0.01 | 0.01 | 99 | 1016.8 |
| 20260510031018 | 67 | 15 | 0.0 | 0.0 | 0.00 | 0.01 | 0.01 | 99 | 1016.9 |
| 20260510030514 | 67 | 15 | 0.0 | 0.0 | 0.00 | 0.01 | 0.01 | 99 | 1016.9 |
| 20260510030011 | 67 | 15 | 0.0 | 0.0 | 0.00 | 0.01 | 0.01 | 99 | 1016.9 |
| 20260510025508 | 67 | 15 | 0.0 | 0.0 | 0.00 | 0.01 | 0.01 | 99 | 1017.1 |
| 20260510025006 | 67 | 15 | 0.0 | 0.0 | 0.00 | 0.01 | 0.01 | 99 | 1017.2 |
| 20260510024502 | 67 | 15 | 0.0 | 0.0 | 0.00 | 0.01 | 0.01 | 99 | 1017.2 |
| 20260510023958 | 67 | 15 | 0.0 | 0.0 | 0.00 | 0.01 | 0.01 | 99 | 1017.0 |
| 20260510023455 | 67 | 15 | 0.0 | 0.0 | 0.00 | 0.01 | 0.01 | 99 | 1017.0 |
| 20260510022952 | 67 | 15 | 0.0 | 0.0 | 0.00 | 0.01 | 0.01 | 99 | 1017.2 |
| 20260510022451 | 67 | 15 | 0.0 | 0.0 | 0.00 | 0.01 | 0.01 | 99 | 1017.0 |
| 20260510021950 | 67 | 15 | 0.0 | 0.0 | 0.00 | 0.01 | 0.01 | 99 | 1017.0 |
| 20260510021448 | 67 | 15 | 0.0 | 0.0 | 0.00 | 0.01 | 0.01 | 99 | 1016.9 |
| 20260510020944 | 67 | 15 | 0.0 | 0.0 | 0.00 | 0.01 | 0.01 | 99 | 1016.9 |
| 20260510020439 | 67 | 15 | 0.0 | 0.0 | 0.00 | 0.01 | 0.01 | 99 | 1017.0 |
| 20260510015935 | 67 | 15 | 0.0 | 0.0 | 0.00 | 0.01 | 0.01 | 99 | 1017.2 |
| 20260510015431 | 67 | 15 | 0.0 | 0.0 | 0.00 | 0.01 | 0.01 | 99 | 1017.0 |
| 20260510014926 | 67 | 15 | 0.0 | 0.0 | 0.00 | 0.01 | 0.01 | 99 | 1017.2 |
| 20260510014424 | 67 | 352 | 0.0 | 1.0 | 0.00 | 0.01 | 0.01 | 99 | 1017.3 |
| 20260510013920 | 67 | 0 | 0.0 | 0.0 | 0.00 | 0.01 | 0.01 | 99 | 1017.2 |
| 20260510013415 | 68 | 0 | 0.0 | 0.0 | 0.00 | 0.01 | 0.01 | 99 | 1016.8 |
| 20260510012911 | 67 | 0 | 0.0 | 0.0 | 0.00 | 0.01 | 0.01 | 99 | 1017.0 |
| 20260510012406 | 68 | 0 | 0.0 | 0.0 | 0.00 | 0.01 | 0.01 | 99 | 1017.1 |
| 20260510011901 | 68 | 0 | 0.0 | 0.0 | 0.00 | 0.01 | 0.01 | 99 | 1017.3 |
| 20260510011356 | 68 | 0 | 0.0 | 0.0 | 0.00 | 0.01 | 0.01 | 99 | 1017.3 |
| 20260510010853 | 68 | 340 | 0.0 | 2.0 | 0.00 | 0.01 | 0.01 | 99 | 1017.0 |
| 20260510010350 | 68 | 297 | 2.0 | 2.0 | 0.00 | 0.01 | 0.01 | 99 | 1017.0 |
| 20260510005846 | 68 | 349 | 0.0 | 2.0 | 0.00 | 0.01 | 0.01 | 99 | 1016.6 |
| 20260510005343 | 68 | 352 | 0.0 | 0.0 | 0.00 | 0.01 | 0.01 | 99 | 1016.1 |
| 20260510004840 | 68 | 352 | 0.0 | 0.0 | 0.00 | 0.01 | 0.01 | 99 | 1016.3 |
| 20260510004338 | 68 | 352 | 0.0 | 0.0 | 0.00 | 0.01 | 0.01 | 99 | 1016.4 |
| 20260510003836 | 68 | 352 | 0.0 | 0.0 | 0.00 | 0.01 | 0.01 | 99 | 1016.4 |
| 20260510003332 | 68 | 352 | 0.0 | 0.0 | 0.00 | 0.01 | 0.01 | 99 | 1016.1 |
| 20260510002831 | 68 | 221 | 0.0 | 0.0 | 0.00 | 0.01 | 0.01 | 99 | 1016.1 |
| 20260510002328 | 68 | 221 | 0.0 | 0.0 | 0.00 | 0.01 | 0.01 | 99 | 1015.9 |
| 20260510001825 | 68 | 221 | 0.0 | 0.0 | 0.00 | 0.01 | 0.01 | 99 | 1016.0 |
| 20260510001323 | 68 | 221 | 0.0 | 0.0 | 0.00 | 0.01 | 0.01 | 99 | 1015.7 |
| 20260510000819 | 68 | 221 | 0.0 | 0.0 | 0.00 | 0.01 | 0.01 | 99 | 1015.4 |
| 20260510000318 | 69 | 221 | 0.0 | 0.0 | 0.00 | 0.01 | 0.01 | 99 | 1015.4 |
| 20260509235813 | 69 | 221 | 0.0 | 0.0 | 0.00 | 0.01 | 0.01 | 99 | 1015.6 |
| 20260509235310 | 69 | 221 | 0.0 | 0.0 | 0.00 | 0.01 | 0.01 | 99 | 1015.7 |
| 20260509234806 | 69 | 221 | 0.0 | 0.0 | 0.00 | 0.01 | 0.01 | 99 | 1015.9 |
| 20260509234302 | 69 | 221 | 0.0 | 0.0 | 0.00 | 0.01 | 0.01 | 99 | 1015.8 |
| 20260509233801 | 69 | 221 | 0.0 | 0.0 | 0.00 | 0.01 | 0.01 | 99 | 1016.0 |
| 20260509233258 | 69 | 221 | 0.0 | 0.0 | 0.00 | 0.01 | 0.01 | 99 | 1016.1 |
| 20260509232754 | 69 | 221 | 0.0 | 0.0 | 0.00 | 0.01 | 0.01 | 99 | 1015.9 |
| 20260509232251 | 69 | 103 | 0.0 | 1.0 | 0.00 | 0.01 | 0.01 | 99 | 1016.0 |
| 20260509231747 | 69 | 261 | 0.0 | 0.0 | 0.00 | 0.01 | 0.01 | 99 | 1015.8 |
| 20260509231244 | 69 | 194 | 0.0 | 1.0 | 0.00 | 0.01 | 0.01 | 99 | 1015.7 |
| 20260509230742 | 69 | 172 | 0.0 | 1.0 | 0.00 | 0.01 | 0.01 | 99 | 1016.0 |
| 20260509230239 | 69 | 180 | 0.0 | 0.0 | 0.00 | 0.01 | 0.01 | 99 | 1015.8 |
| 20260509225734 | 69 | 249 | 0.0 | 1.0 | 0.02 | 0.01 | 0.01 | 99 | 1015.7 |
| 20260509225230 | 69 | 166 | 1.0 | 3.0 | 0.02 | 0.01 | 0.01 | 99 | 1015.8 |
| 20260509224726 | 69 | 124 | 2.0 | 2.0 | 0.00 | 0.00 | 0.00 | 99 | 1016.0 |
| 20260509224224 | 69 | 203 | 0.0 | 2.0 | 0.00 | 0.00 | 0.00 | 99 | 1015.8 |
| 20260509223720 | 70 | 131 | 0.0 | 2.0 | 0.00 | 0.00 | 0.00 | 99 | 1015.9 |
| 20260509223217 | 70 | 270 | 0.0 | 0.0 | 0.00 | 0.00 | 0.00 | 99 | 1015.7 |
| 20260509222714 | 70 | 270 | 0.0 | 2.0 | 0.00 | 0.00 | 0.00 | 99 | 1015.7 |
| 20260509222209 | 70 | 331 | 0.0 | 1.0 | 0.00 | 0.00 | 0.00 | 99 | 1015.8 |
| 20260509221705 | 70 | 345 | 0.0 | 0.0 | 0.00 | 0.00 | 0.00 | 99 | 1015.7 |
| 20260509221201 | 69 | 337 | 0.0 | 0.0 | 0.00 | 0.00 | 0.00 | 99 | 1015.7 |
| 20260509220657 | 70 | 340 | 0.0 | 1.0 | 0.00 | 0.00 | 0.00 | 99 | 1015.7 |
| 20260509220148 | 70 | 337 | 0.0 | 2.0 | 0.00 | 0.00 | 0.00 | 99 | 1015.8 |
| 20260509215644 | 70 | 345 | 2.0 | 3.0 | 0.00 | 0.00 | 0.00 | 99 | 1015.7 |
| 20260509215141 | 70 | 346 | 0.0 | 0.0 | 0.00 | 0.00 | 0.00 | 99 | 1015.3 |
| 20260509214638 | 70 | 346 | 0.0 | 0.0 | 0.00 | 0.00 | 0.00 | 99 | 1015.3 |
| 20260509214135 | 70 | 345 | 0.0 | 0.0 | 0.00 | 0.00 | 0.00 | 99 | 1015.4 |
| 20260509213631 | 70 | 345 | 0.0 | 2.0 | 0.00 | 0.00 | 0.00 | 99 | 1015.5 |
| 20260509213127 | 70 | 279 | 0.0 | 1.0 | 0.00 | 0.00 | 0.00 | 99 | 1015.3 |
| 20260509212625 | 70 | 337 | 1.0 | 3.0 | 0.00 | 0.00 | 0.00 | 99 | 1015.5 |
| 20260509212122 | 70 | 292 | 0.0 | 4.0 | 0.00 | 0.00 | 0.00 | 99 | 1015.6 |
| 20260509211618 | 70 | 299 | 3.0 | 5.0 | 0.00 | 0.00 | 0.00 | 99 | 1015.6 |
| 20260509211114 | 70 | 334 | 1.0 | 4.0 | 0.00 | 0.00 | 0.00 | 99 | 1015.5 |
| 20260509210611 | 70 | 8 | 2.0 | 4.0 | 0.00 | 0.00 | 0.00 | 99 | 1015.4 |
| 20260509210108 | 71 | 261 | 0.0 | 2.0 | 0.00 | 0.00 | 0.00 | 99 | 1015.1 |
| 20260509205602 | 71 | 294 | 0.0 | 2.0 | 0.00 | 0.00 | 0.00 | 99 | 1015.0 |
| 20260509205057 | 71 | 303 | 0.0 | 2.0 | 0.00 | 0.00 | 0.00 | 99 | 1014.9 |
| 20260509204554 | 70 | 325 | 4.0 | 6.0 | 0.00 | 0.00 | 0.00 | 99 | 1015.0 |
| 20260509204051 | 71 | 339 | 2.0 | 7.0 | 0.00 | 0.00 | 0.00 | 99 | 1015.3 |
| 20260509203546 | 71 | 173 | 0.0 | 1.0 | 0.00 | 0.00 | 0.00 | 99 | 1014.4 |
| 20260509203044 | 71 | 331 | 1.0 | 3.0 | 0.00 | 0.00 | 0.00 | 99 | 1014.8 |
| 20260509202539 | 71 | 331 | 0.0 | 0.0 | 0.00 | 0.00 | 0.00 | 99 | 1014.8 |
| 20260509202035 | 72 | 0 | 0.0 | 1.0 | 0.00 | 0.00 | 0.00 | 99 | 1014.6 |
| 20260509201530 | 72 | 325 | 0.0 | 0.0 | 0.00 | 0.00 | 0.00 | 99 | 1014.2 |
| 20260509201027 | 72 | 348 | 1.0 | 1.0 | 0.00 | 0.00 | 0.00 | 99 | 1014.3 |
| 20260509200521 | 72 | 270 | 0.0 | 0.0 | 0.00 | 0.00 | 0.00 | 99 | 1014.0 |
| 20260509200018 | 71 | 270 | 0.0 | 0.0 | 0.00 | 0.00 | 0.00 | 99 | 1014.4 |
| 20260509195513 | 71 | 353 | 0.0 | 3.0 | 0.00 | 0.00 | 0.00 | 99 | 1014.3 |
| 20260509195008 | 72 | 287 | 2.0 | 4.0 | 0.00 | 0.00 | 0.00 | 99 | 1014.4 |
| 20260509194504 | 71 | 334 | 0.0 | 4.0 | 0.00 | 0.00 | 0.00 | 99 | 1013.5 |
| 20260509194001 | 70 | 231 | 2.0 | 6.0 | 0.00 | 0.00 | 0.00 | 99 | 1013.6 |
| 20260509193500 | 70 | 143 | 0.0 | 5.0 | 0.00 | 0.00 | 0.00 | 99 | 1013.3 |
| 20260509192957 | 69 | 180 | 1.0 | 7.0 | 0.00 | 0.00 | 0.00 | 99 | 1013.1 |